When you browse on this site, cookies collect data to enhance your experience and personalize the content and advertising you see.
Visit our Privacy Policy to learn more. By continuing to use the site, you agree to this use of cookies and data.

Stündliche Wetter Elburg

Heute, 25 September, Freitag

Zeit Temperatur Niederschläge Wind Luftdruck Luftfeuchtigkeit
00:00 +11°C° 0.3 mm 4 m/S 745 mmHg 95%
01:00 +11°C° 0.2 mm 4 m/S 745 mmHg 94%
02:00 +11°C° 0.2 mm 4 m/S 745 mmHg 92%
03:00 +11°C° 0.2 mm 4 m/S 745 mmHg 91%
04:00 +10°C° 0 mm 4 m/S 745 mmHg 91%
05:00 +9°C° 0 mm 5 m/S 745 mmHg 91%
06:00 +8°C° 0 mm 5 m/S 745 mmHg 90%
07:00 +9°C° 0 mm 5 m/S 745 mmHg 85%
08:00 +9°C° 0 mm 6 m/S 745 mmHg 79%
09:00 +10°C° 0 mm 6 m/S 746 mmHg 74%
10:00 +12°C° 0 mm 5 m/S 746 mmHg 69%
11:00 +13°C° 0 mm 5 m/S 745 mmHg 65%
12:00 +14°C° 0 mm 4 m/S 745 mmHg 61%
13:00 +14°C° 0.1 mm 4 m/S 745 mmHg 61%
14:00 +14°C° 0.1 mm 4 m/S 745 mmHg 62%
15:00 +14°C° 0.1 mm 3 m/S 745 mmHg 62%
16:00 +13°C° 0 mm 3 m/S 745 mmHg 69%
17:00 +12°C° 0 mm 2 m/S 745 mmHg 75%
18:00 +11°C° 0 mm 1 m/S 745 mmHg 81%
19:00 +10°C° 0 mm 1 m/S 745 mmHg 83%
20:00 +9°C° 0 mm 2 m/S 746 mmHg 85%
21:00 +8°C° 0 mm 2 m/S 746 mmHg 87%
22:00 +8°C° 0 mm 2 m/S 746 mmHg 89%
23:00 +8°C° 0 mm 1 m/S 746 mmHg 90%

Morgen, 26 September, Samstag

Zeit Temperatur Niederschläge Wind Luftdruck Luftfeuchtigkeit
00:00 +8°C° 0 mm 1 m/S 746 mmHg 92%
01:00 +8°C° 0 mm 1 m/S 746 mmHg 92%
02:00 +8°C° 0 mm 1 m/S 747 mmHg 92%
03:00 +7°C° 0 mm 2 m/S 747 mmHg 92%
04:00 +8°C° 0 mm 1 m/S 748 mmHg 91%
05:00 +8°C° 0 mm 1 m/S 748 mmHg 90%
06:00 +8°C° 0 mm 1 m/S 748 mmHg 89%
07:00 +10°C° 0 mm 1 m/S 749 mmHg 82%
08:00 +12°C° 0 mm 1 m/S 749 mmHg 76%
09:00 +14°C° 0 mm 2 m/S 749 mmHg 69%
10:00 +14°C° 0 mm 3 m/S 749 mmHg 65%
11:00 +15°C° 0 mm 4 m/S 749 mmHg 62%
12:00 +17°C° 0 mm 4 m/S 749 mmHg 58%
13:00 +15°C° 0.3 mm 5 m/S 749 mmHg 68%
14:00 +14°C° 0.3 mm 5 m/S 750 mmHg 77%
15:00 +13°C° 0.3 mm 5 m/S 750 mmHg 87%
16:00 +13°C° 0.2 mm 6 m/S 750 mmHg 87%
17:00 +11°C° 0.2 mm 6 m/S 750 mmHg 87%
18:00 +11°C° 0.2 mm 6 m/S 750 mmHg 86%
19:00 +11°C° 0 mm 7 m/S 749 mmHg 86%
20:00 +11°C° 0 mm 7 m/S 749 mmHg 86%
21:00 +11°C° 0 mm 8 m/S 749 mmHg 86%
22:00 +11°C° 1.2 mm 8 m/S 748 mmHg 88%
23:00 +12°C° 1.2 mm 8 m/S 748 mmHg 91%

übermorgen, 27 September, Sonntag

Zeit Temperatur Niederschläge Wind Luftdruck Luftfeuchtigkeit
00:00 +12°C° 1.2 mm 8 m/S 747 mmHg 93%
01:00 +12°C° 0.3 mm 8 m/S 747 mmHg 93%
02:00 +14°C° 0.3 mm 7 m/S 747 mmHg 94%
03:00 +14°C° 0.3 mm 7 m/S 746 mmHg 94%
04:00 +12°C° 0.1 mm 7 m/S 747 mmHg 93%
05:00 +11°C° 0.1 mm 6 m/S 747 mmHg 92%
06:00 +10°C° 0.1 mm 6 m/S 748 mmHg 91%
07:00 +10°C° 0 mm 6 m/S 748 mmHg 89%
08:00 +10°C° 0 mm 6 m/S 749 mmHg 87%
09:00 +10°C° 0 mm 6 m/S 750 mmHg 85%
10:00 +12°C° 0 mm 5 m/S 750 mmHg 81%
11:00 +12°C° 0 mm 5 m/S 751 mmHg 77%
12:00 +13°C° 0 mm 5 m/S 751 mmHg 73%
13:00 +13°C° 0 mm 4 m/S 751 mmHg 75%
14:00 +13°C° 0 mm 4 m/S 751 mmHg 76%
15:00 +13°C° 0 mm 3 m/S 752 mmHg 78%
16:00 +13°C° 0 mm 3 m/S 752 mmHg 81%
17:00 +14°C° 0 mm 2 m/S 752 mmHg 85%
18:00 +14°C° 0 mm 1 m/S 752 mmHg 88%
19:00 +14°C° 0.1 mm 2 m/S 753 mmHg 91%
20:00 +15°C° 0.1 mm 2 m/S 753 mmHg 93%
21:00 +16°C° 0.1 mm 3 m/S 753 mmHg 95%
22:00 +16°C° 0 mm 3 m/S 753 mmHg 95%
23:00 +16°C° 0 mm 3 m/S 753 mmHg 96%

28 September, Montag

Zeit Temperatur Niederschläge Wind Luftdruck Luftfeuchtigkeit
00:00 +16°C° 0 mm 3 m/S 753 mmHg 96%
01:00 +16°C° 0 mm 3 m/S 753 mmHg 96%
02:00 +16°C° 0 mm 3 m/S 753 mmHg 97%
03:00 +16°C° 0 mm 3 m/S 753 mmHg 97%
04:00 +16°C° 0 mm 3 m/S 754 mmHg 97%
05:00 +16°C° 0 mm 3 m/S 754 mmHg 97%
06:00 +14°C° 0 mm 3 m/S 754 mmHg 97%
07:00 +17°C° 0 mm 3 m/S 754 mmHg 94%
08:00 +18°C° 0 mm 4 m/S 754 mmHg 91%
09:00 +19°C° 0 mm 4 m/S 755 mmHg 87%
10:00 +19°C° 0 mm 5 m/S 755 mmHg 86%
11:00 +19°C° 0 mm 5 m/S 755 mmHg 85%
12:00 +19°C° 0 mm 5 m/S 755 mmHg 85%
13:00 +19°C° 0 mm 5 m/S 756 mmHg 85%
14:00 +17°C° 0 mm 5 m/S 756 mmHg 85%
15:00 +17°C° 0 mm 5 m/S 756 mmHg 85%
16:00 +17°C° 0 mm 5 m/S 756 mmHg 85%
17:00 +16°C° 0 mm 5 m/S 757 mmHg 86%
18:00 +17°C° 0 mm 4 m/S 757 mmHg 87%
19:00 +16°C° 0 mm 5 m/S 757 mmHg 88%
20:00 +15°C° 0 mm 5 m/S 758 mmHg 89%
21:00 +15°C° 0 mm 5 m/S 758 mmHg 89%
22:00 +14°C° 0.1 mm 4 m/S 758 mmHg 86%
23:00 +14°C° 0.1 mm 4 m/S 758 mmHg 83%

29 September, Dienstag

Zeit Temperatur Niederschläge Wind Luftdruck Luftfeuchtigkeit
00:00 +13°C° 0.1 mm 4 m/S 759 mmHg 79%
01:00 +12°C° 0.1 mm 4 m/S 759 mmHg 81%
02:00 +12°C° 0.1 mm 3 m/S 759 mmHg 84%
03:00 +11°C° 0.1 mm 3 m/S 759 mmHg 86%
04:00 +11°C° 0 mm 3 m/S 759 mmHg 89%
05:00 +12°C° 0 mm 3 m/S 759 mmHg 92%
06:00 +12°C° 0 mm 3 m/S 759 mmHg 95%
07:00 +13°C° 0 mm 3 m/S 760 mmHg 92%
08:00 +16°C° 0 mm 3 m/S 760 mmHg 89%
09:00 +18°C° 0 mm 3 m/S 760 mmHg 86%
10:00 +18°C° 0.3 mm 3 m/S 760 mmHg 85%
11:00 +18°C° 0.3 mm 4 m/S 760 mmHg 84%
12:00 +19°C° 0.3 mm 4 m/S 760 mmHg 83%
13:00 +19°C° 0.7 mm 4 m/S 760 mmHg 83%
14:00 +19°C° 0.7 mm 4 m/S 760 mmHg 83%
15:00 +18°C° 0.7 mm 4 m/S 760 mmHg 83%
16:00 +17°C° 0.1 mm 3 m/S 760 mmHg 86%
17:00 +16°C° 0.1 mm 3 m/S 760 mmHg 90%
18:00 +15°C° 0.1 mm 2 m/S 760 mmHg 93%
19:00 +15°C° 0 mm 1 m/S 760 mmHg 93%
20:00 +14°C° 0 mm 1 m/S 760 mmHg 93%
21:00 +13°C° 0 mm 0 m/S 761 mmHg 93%
22:00 +14°C° 0.1 mm 1 m/S 760 mmHg 93%
23:00 +14°C° 0.1 mm 1 m/S 760 mmHg 93%

30 September, Mittwoch

Zeit Temperatur Niederschläge Wind Luftdruck Luftfeuchtigkeit
00:00 +14°C° 0.1 mm 1 m/S 760 mmHg 94%
01:00 +14°C° 0 mm 2 m/S 759 mmHg 95%
02:00 +14°C° 0 mm 2 m/S 759 mmHg 95%
03:00 +14°C° 0 mm 2 m/S 759 mmHg 96%
04:00 +13°C° 0 mm 3 m/S 758 mmHg 96%
05:00 +13°C° 0 mm 3 m/S 758 mmHg 96%
06:00 +13°C° 0 mm 3 m/S 758 mmHg 96%
07:00 +14°C° 0.1 mm 3 m/S 758 mmHg 93%
08:00 +14°C° 0.1 mm 4 m/S 757 mmHg 90%
09:00 +15°C° 0.1 mm 4 m/S 757 mmHg 87%
10:00 +17°C° 0 mm 4 m/S 757 mmHg 83%
11:00 +18°C° 0 mm 4 m/S 757 mmHg 80%
12:00 +18°C° 0 mm 4 m/S 756 mmHg 76%
13:00 +19°C° 0.1 mm 4 m/S 756 mmHg 76%
14:00 +19°C° 0.1 mm 4 m/S 756 mmHg 76%
15:00 +19°C° 0.1 mm 4 m/S 755 mmHg 76%
16:00 +17°C° 0.1 mm 3 m/S 755 mmHg 81%
17:00 +16°C° 0.1 mm 3 m/S 755 mmHg 85%
18:00 +14°C° 0.1 mm 3 m/S 755 mmHg 90%
19:00 +14°C° 0 mm 3 m/S 754 mmHg 90%
20:00 +13°C° 0 mm 3 m/S 754 mmHg 91%
21:00 +13°C° 0 mm 4 m/S 754 mmHg 91%
22:00 +13°C° 0 mm 4 m/S 753 mmHg 91%
23:00 +12°C° 0 mm 4 m/S 753 mmHg 91%
Mehr zeigen